FW1394 Weather Reports


time (UTC)temp
C
wind
direction
speed
KPH
gust
KPH
rain 1hr
cm
rain 24hr
cm
rain mn
cm
humidity
%
barometer
mb
20260504130542 11 0 0.0 0.0 0.00 0.00 0.00 77 1009.1
20260504110544 11 0 0.0 0.0 0.00 0.00 0.00 74 1009.0
20260504100540 12 0 0.0 0.0 0.00 0.00 0.00 72 1009.0
20260504081607 12 0 0.0 0.0 0.00 0.00 0.00 69 1009.2
20260504081041 13 0 0.0 0.0 0.00 0.00 0.00 68 1009.1
20260504080541 13 0 0.0 0.0 0.00 0.00 0.00 67 1009.1
20260504060123 14 0 0.0 0.0 0.00 0.00 0.00 65 1009.1
20260504050544 15 0 0.0 0.0 0.00 0.00 0.00 62 1009.2
20260504050111 15 0 0.0 0.0 0.00 0.00 0.00 62 1009.3
20260504045544 15 0 0.0 0.0 0.00 0.00 0.00 62 1009.3
20260504045044 15 0 0.0 0.0 0.00 0.00 0.00 62 1009.4
20260504044551 15 0 0.0 0.0 0.00 0.00 0.00 63 1009.4
20260504044042 15 0 0.0 0.0 0.00 0.00 0.00 61 1009.4
20260504043541 15 0 0.0 0.0 0.00 0.00 0.00 61 1009.4
20260504043101 15 0 0.0 0.0 0.00 0.00 0.00 60 1009.3
20260504042542 16 0 0.0 0.0 0.00 0.00 0.00 61 1009.3
20260504042041 16 0 0.0 0.0 0.00 0.00 0.00 61 1009.4
20260504041550 16 0 0.0 0.0 0.00 0.00 0.00 61 1009.3
20260504041041 16 0 0.0 0.0 0.00 0.00 0.00 60 1009.4
20260504040541 16 0 0.0 0.0 0.00 0.00 0.00 60 1009.4
20260504040058 16 0 0.0 0.0 0.00 0.00 0.00 60 1009.3
20260504035541 16 0 0.0 0.0 0.00 0.00 0.00 61 1009.3
20260504035041 16 0 0.0 0.0 0.00 0.00 0.00 60 1009.2
20260504034545 16 0 0.0 0.0 0.00 0.00 0.00 60 1009.3
20260504034041 17 0 0.0 0.0 0.00 0.00 0.00 58 1009.1
20260504033538 17 0 0.0 0.0 0.00 0.00 0.00 58 1009.0
20260504033056 17 0 0.0 0.0 0.00 0.00 0.00 58 1008.9
20260504032538 17 0 0.0 0.0 0.00 0.00 0.00 60 1008.9
20260504032042 17 0 0.0 0.0 0.00 0.00 0.00 59 1008.9
20260504031557 18 0 0.0 0.0 0.00 0.00 0.00 58 1008.9
20260504031038 18 0 0.0 0.0 0.00 0.00 0.00 58 1008.9
20260504030540 18 0 0.0 0.0 0.00 0.00 0.00 57 1008.9
20260504030051 18 0 0.0 0.0 0.00 0.00 0.00 58 1008.9
20260504025540 18 0 0.0 0.0 0.00 0.00 0.00 54 1009.0
20260504025039 18 0 0.0 0.0 0.00 0.00 0.00 54 1009.0
20260504024557 18 0 0.0 0.0 0.00 0.00 0.00 54 1009.1
20260504024040 18 0 0.0 0.0 0.00 0.00 0.00 53 1009.2
20260504023539 18 0 0.0 0.0 0.00 0.00 0.00 53 1009.1
20260504023048 19 0 0.0 0.0 0.00 0.00 0.00 52 1009.2
20260504022539 19 0 0.0 0.0 0.00 0.00 0.00 51 1009.3
20260504022038 19 0 0.0 0.0 0.00 0.00 0.00 51 1009.3
20260504021551 19 0 0.0 0.0 0.00 0.00 0.00 51 1009.3
20260504021041 19 0 0.0 0.0 0.00 0.00 0.00 50 1009.3
20260504020538 19 0 0.0 0.0 0.00 0.00 0.00 50 1009.3
20260504020052 19 0 0.0 0.0 0.00 0.00 0.00 48 1009.3
20260504015538 19 0 0.0 0.0 0.00 0.00 0.00 48 1009.3
20260504015038 20 0 0.0 0.0 0.00 0.00 0.00 47 1009.4
20260504014557 20 0 0.0 0.0 0.00 0.00 0.00 49 1009.5
20260504014041 20 0 0.0 0.0 0.00 0.00 0.00 49 1009.5
20260504013538 20 0 0.0 0.0 0.00 0.00 0.00 46 1009.7
20260504013055 20 0 0.0 0.0 0.00 0.00 0.00 47 1009.8
20260504012538 20 0 0.0 0.0 0.00 0.00 0.00 46 1009.8
20260504012038 20 0 0.0 0.0 0.00 0.00 0.00 46 1009.7
20260504011554 20 0 0.0 0.0 0.00 0.00 0.00 45 1009.8
20260504011037 21 0 0.0 0.0 0.00 0.00 0.00 44 1009.8
20260504010537 21 0 0.0 0.0 0.00 0.00 0.00 43 1009.9
20260504010107 21 0 0.0 0.0 0.00 0.00 0.00 42 1010.0
20260504005542 21 0 0.0 0.0 0.00 0.00 0.00 41 1010.0
20260504005042 22 0 0.0 0.0 0.00 0.00 0.00 41 1010.1
20260504004552 22 0 0.0 0.0 0.00 0.00 0.00 42 1010.1
20260504004044 22 0 0.0 0.0 0.00 0.00 0.00 42 1010.2
20260504003542 22 0 0.0 0.0 0.00 0.00 0.00 40 1010.2
20260504003050 23 0 0.0 0.0 0.00 0.00 0.00 40 1010.3
20260504002542 23 0 0.0 0.0 0.00 0.00 0.00 39 1010.2
20260504002042 23 0 0.0 0.0 0.00 0.00 0.00 37 1010.2
20260504001559 23 0 0.0 0.0 0.00 0.00 0.00 38 1010.3
20260504001043 23 0 0.0 0.0 0.00 0.00 0.00 38 1010.5
20260504000540 23 0 0.0 0.0 0.00 0.00 0.00 35 1010.4
20260504000056 24 0 0.0 0.0 0.00 0.00 0.00 36 1010.4
20260503235546 24 0 0.0 0.0 0.00 0.00 0.00 35 1010.6
20260503235041 25 0 0.0 0.0 0.00 0.00 0.00 35 1010.8
20260503234553 25 0 0.0 0.0 0.00 0.00 0.00 35 1010.9
20260503234042 25 0 0.0 0.0 0.00 0.00 0.00 34 1010.8
20260503233541 26 0 0.0 0.0 0.00 0.00 0.00 33 1010.7
20260503233103 26 0 0.0 0.0 0.00 0.00 0.00 31 1010.8
20260503232540 27 0 0.0 0.0 0.00 0.00 0.00 30 1011.0
20260503232044 27 0 0.0 0.0 0.00 0.00 0.00 30 1011.1
20260503231553 27 0 0.0 0.0 0.00 0.00 0.00 31 1011.1
20260503231042 28 0 0.0 0.0 0.00 0.00 0.00 30 1011.2
20260503230543 28 0 0.0 0.0 0.00 0.00 0.00 30 1011.2
20260503230053 29 0 0.0 0.0 0.00 0.00 0.00 29 1011.2
20260503225546 30 0 0.0 0.0 0.00 0.00 0.00 28 1011.2
20260503225041 30 0 0.0 0.0 0.00 0.00 0.00 27 1011.4
20260503224554 30 0 0.0 0.0 0.00 0.00 0.00 27 1011.5
20260503224042 31 0 0.0 0.0 0.00 0.00 0.00 27 1011.5
20260503223540 31 0 0.0 0.0 0.00 0.00 0.00 27 1011.7
20260503223051 31 0 0.0 0.0 0.00 0.00 0.00 27 1011.8
20260503222541 31 0 0.0 0.0 0.00 0.00 0.00 25 1011.8
20260503222044 31 0 0.0 0.0 0.00 0.00 0.00 26 1011.8
20260503221558 31 0 0.0 0.0 0.00 0.00 0.00 28 1011.9
20260503221042 31 0 0.0 0.0 0.00 0.00 0.00 27 1011.9
20260503220541 31 0 0.0 0.0 0.00 0.00 0.00 27 1011.9
20260503215543 31 0 0.0 0.0 0.00 0.00 0.00 28 1012.1
20260503215040 31 0 0.0 0.0 0.00 0.00 0.00 28 1012.1
20260503214554 31 0 0.0 0.0 0.00 0.00 0.00 27 1012.1
20260503214040 31 0 0.0 0.0 0.00 0.00 0.00 28 1012.2
20260503213545 31 0 0.0 0.0 0.00 0.00 0.00 30 1012.3
20260503213051 31 0 0.0 0.0 0.00 0.00 0.00 28 1012.3
20260503212543 31 0 0.0 0.0 0.00 0.00 0.00 32 1012.3
20260503212042 31 0 0.0 0.0 0.00 0.00 0.00 29 1012.3
20260503211550 31 0 0.0 0.0 0.00 0.00 0.00 29 1012.4
20260503211040 31 0 0.0 0.0 0.00 0.00 0.00 29 1012.5
20260503210540 31 0 0.0 0.0 0.00 0.00 0.00 29 1012.5
20260503210057 30 0 0.0 0.0 0.00 0.00 0.00 30 1012.7
20260503205541 30 0 0.0 0.0 0.00 0.00 0.00 29 1012.7
20260503205043 30 0 0.0 0.0 0.00 0.00 0.00 30 1012.8
20260503204606 30 0 0.0 0.0 0.00 0.00 0.00 31 1012.9
20260503204040 31 0 0.0 0.0 0.00 0.00 0.00 29 1013.0
20260503203541 31 0 0.0 0.0 0.00 0.00 0.00 29 1013.1
20260503203105 31 0 0.0 0.0 0.00 0.00 0.00 30 1013.1
20260503202541 31 0 0.0 0.0 0.00 0.00 0.00 31 1013.2
20260503202041 31 0 0.0 0.0 0.00 0.00 0.00 31 1013.2
20260503201549 30 0 0.0 0.0 0.00 0.00 0.00 32 1013.2
20260503201042 31 0 0.0 0.0 0.00 0.00 0.00 29 1013.3
20260503200540 31 0 0.0 0.0 0.00 0.00 0.00 30 1013.3
20260503200055 31 0 0.0 0.0 0.00 0.00 0.00 30 1013.4
20260503195540 31 0 0.0 0.0 0.00 0.00 0.00 31 1013.4
20260503195042 31 0 0.0 0.0 0.00 0.00 0.00 30 1013.4
20260503194607 31 0 0.0 0.0 0.00 0.00 0.00 31 1013.4
20260503194041 31 0 0.0 0.0 0.00 0.00 0.00 31 1013.3
20260503193542 31 0 0.0 0.0 0.00 0.00 0.00 31 1013.4
20260503193050 31 0 0.0 0.0 0.00 0.00 0.00 32 1013.5
20260503192541 31 0 0.0 0.0 0.00 0.00 0.00 33 1013.4
20260503192041 30 0 0.0 0.0 0.00 0.00 0.00 32 1013.5
20260503191600 30 0 0.0 0.0 0.00 0.00 0.00 33 1013.5
20260503191042 30 0 0.0 0.0 0.00 0.00 0.00 34 1013.5
20260503190541 30 0 0.0 0.0 0.00 0.00 0.00 34 1013.6
20260503190057 29 0 0.0 0.0 0.00 0.00 0.00 35 1013.6
20260503185541 29 0 0.0 0.0 0.00 0.00 0.00 35 1013.7
20260503185041 28 0 0.0 0.0 0.00 0.00 0.00 35 1013.8
20260503184555 28 0 0.0 0.0 0.00 0.00 0.00 36 1013.8
20260503184041 28 0 0.0 0.0 0.00 0.00 0.00 35 1013.9
20260503183542 28 0 0.0 0.0 0.00 0.00 0.00 36 1014.0
20260503183105 27 0 0.0 0.0 0.00 0.00 0.00 38 1014.1
20260503182540 27 0 0.0 0.0 0.00 0.00 0.00 36 1014.1
20260503182040 27 0 0.0 0.0 0.00 0.00 0.00 37 1014.2
20260503181554 27 0 0.0 0.0 0.00 0.00 0.00 37 1014.2
20260503181040 27 0 0.0 0.0 0.00 0.00 0.00 37 1014.2
20260503180540 27 0 0.0 0.0 0.00 0.00 0.00 38 1014.1
20260503180105 26 0 0.0 0.0 0.00 0.00 0.00 38 1014.2
20260503175540 26 0 0.0 0.0 0.00 0.00 0.00 39 1014.2
20260503175040 26 0 0.0 0.0 0.00 0.00 0.00 39 1014.3
20260503174549 25 0 0.0 0.0 0.00 0.00 0.00 41 1014.3
20260503174041 25 0 0.0 0.0 0.00 0.00 0.00 42 1014.3
20260503173538 24 0 0.0 0.0 0.00 0.00 0.00 43 1014.3
20260503173134 23 0 0.0 0.0 0.00 0.00 0.00 44 1014.3
20260503172539 23 0 0.0 0.0 0.00 0.00 0.00 46 1014.3
20260503172039 22 0 0.0 0.0 0.00 0.00 0.00 48 1014.4
20260503171554 22 0 0.0 0.0 0.00 0.00 0.00 49 1014.4
20260503171045 21 0 0.0 0.0 0.00 0.00 0.00 52 1014.4
20260503170541 20 0 0.0 0.0 0.00 0.00 0.00 54 1014.5
20260503150541 17 0 0.0 0.0 0.00 0.00 0.00 65 1014.7